Find Starlink 30279

NORAD ID: 57885 Int'l Des: 2023-144 Owner: SPXS Country: US Constellation: starlink operational
LEOCIRCULAR

实时位置

正在加载3D地球...

关于 Starlink 30279

正在加载描述...

即将过境

Passes for default location (London). Set your location on the main map for personalized predictions.

高度历史

Loading altitude history...

两行轨道根数

1 57885U 23144X 26125.59093801 -.00000841 00000-0 -21029-4 0 9991
2 57885 43.0035 323.5177 0000716 282.7669 77.3103 15.27594986146280
Epoch: May 5, 2026 • Age: 16 hours

当前状态

高度 482.9 km
速度 7.63 km/s
星下点 0.60°N, 175.03°E
发射日期 Sep 16, 2023
运行时间 2.6 years
类型 internet

技术详情

分类 Payload
质量 730.00 kg
干质量 700.00 kg
总质量 730.00 kg
长度 0.30 m
直径 4.10 m
跨度 29.00 m
形状 Box + pan
制造商 SPXS
平台类型 Starlink V2M
阶段状态 In Orbit
所有者/国家 SPXS/US

Most Searched